Regional Weather Roundup
Issued by NWS Little Rock, AR

Home | Current Version | Previous Version | Graphics & Text | Print | Product List | Glossary On
Versions: 1 2 3 4 5 6 7 8 9 10 11 12 13 14 15 16 17 18 19 20 21 22 23 24 25 26 27 28 29 30 31 32 33 34 35 36 37 38 39 40 41 42 43 44 45 46 47
000
ASUS44 KLZK 212205
RWRLZK

WEATHER ROUNDUP FOR ARKANSAS
NATIONAL WEATHER SERVICE LITTLE ROCK AR
500 PM CDT THU MAY 21 2015

NOTE: "FAIR" INDICATES FEW OR NO CLOUDS BELOW 12,000 FEET WITH NO
SIGNIFICANT WEATHER AND/OR OBSTRUCTIONS TO VISIBILITY.

ARZ001-003-010-029-212300-
NORTHWEST ARKANSAS

CITY           SKY/WX    TMP DP  RH WIND       PRES   REMARKS
FAYETTEVILLE   PTSUNNY   62  48  60 E6        30.21F
FORT SMITH     SUNNY     69  48  47 NE5       30.18F
HARRISON       MOSUNNY   63  46  54 VRB5      30.21F
BENTONVILLE    SUNNY     63  45  51 N9        30.22F
ROGERS         MOSUNNY   61  46  57 N8        30.23F
SILOAM SPGS    PTSUNNY   63  46  55 N6        30.23F
HIGHFILL       PTSUNNY   64  47  53 NE7       30.22F
SPRINGDALE     MOSUNNY   63  46  55 N9        30.24F
$$

ARZ004-005-016-212300-
NORTH CENTRAL ARKANSAS

CITY           SKY/WX    TMP DP  RH WIND       PRES   REMARKS
BATESVILLE     SUNNY     64  46  52 N5        30.19F
FLIPPIN        MOSUNNY   64  45  48 NW6       30.19F
MTN HOME       MOSUNNY   64  45  49 MISG      30.19F
$$

ARZ040-041-212300-
WEST CENTRAL ARKANSAS

CITY           SKY/WX    TMP DP  RH WIND       PRES   REMARKS
MENA           SUNNY     68  52  56 NE9       30.18S
MOUNT IDA      SUNNY     67  50  54 N8        30.16S
$$

ARZ009-017-025-026-028-212300-
NORTHEAST ARKANSAS

CITY           SKY/WX    TMP DP  RH WIND       PRES   REMARKS
CORNING          N/A     63  46  55 NE12      30.21F
JONESBORO      PTSUNNY   60  48  64 N8        30.21F
NEWPORT        MOSUNNY   63  48  57 N9        30.21F
WALNUT RIDGE   MOSUNNY   63  46  55 NE9       30.20F
BLYTHEVILLE    CLOUDY    59  47  64 N10       30.21F
$$

ARZ022-023-033-042-044-212300-
CENTRAL ARKANSAS

CITY           SKY/WX    TMP DP  RH WIND       PRES   REMARKS
LITTLE ROCK    PTSUNNY   68  48  48 NE7       30.18F
N LITTLE ROCK  PTSUNNY   64  53  67 N7        30.18F
JACKSONVILLE   PTSUNNY   67  49  52 NE6       30.18F
SEARCY         PTSUNNY   66  50  56 N12       30.20F
HOT SPRINGS    SUNNY     68  49  50 NE8       30.17F
RUSSELLVILLE   SUNNY     69  48  47 N8        30.17F
CLINTON        FAIR      66  48  52 NW7       30.20F
$$

ARZ036-212300-
EAST ARKANSAS

CITY           SKY/WX    TMP DP  RH WIND       PRES   REMARKS
WEST MEMPHIS   CLOUDY    55  46  71 N12       30.20F
$$

ARZ050-053-066-070-073-212300-
SOUTHWEST ARKANSAS

CITY           SKY/WX    TMP DP  RH WIND       PRES   REMARKS
ARKADELPHIA    FAIR      66  54  65 VRB5      30.18F
CAMDEN         CLOUDY    63  52  67 N8        30.17S
TEXARKANA      CLOUDY    63  57  81 NE6       30.16S
EL DORADO      CLOUDY    61  55  81 NE8       30.17R
DE QUEEN       PTSUNNY   68  56  65 NE7       30.13F
$$

ARZ056-057-069-212300-
SOUTHEAST ARKANSAS

CITY           SKY/WX    TMP DP  RH WIND       PRES   REMARKS
PINE BLUFF     CLOUDY    63  50  62 N13       30.19F
STUTTGART      CLOUDY    61  46  59 N14       30.19F
MONTICELLO     CLOUDY    60  52  74 NE8       30.17S

$$





USA.gov is the U.S. government's official web portal to all federal, state and local government web resources and services.